Home   Weather   Demmin   Past weeks

Flag for Germany Past Weather in Demmin, Mecklenburg-Western Pomerania, Germany — Yesterday and Last 2 Weeks

Now
59 °F

Partly sunny.


Feels Like: 56 °F
Forecast: 54 / 64 °F
Wind: 16 mph from West

Location: Laage

Current Time: Aug 21, 2017 at 10:35:41 am

Latest Report: Aug 21, 2017 at 9:20 am


Visibility: N/A

Pressure: 30.04 "Hg

Humidity: 82%

Dew Point: 54 °F

Location of DemminLocation

Past Weather in Demmin — Graph

°F

Demmin Temperature Yesterday

Maximum temperature yesterday: 66 °F (at 1:20 pm)
Minimum temperature yesterday: 52 °F (at 3:20 am)
Average temperature yesterday: 57 °F

High & Low Weather Summary for the Past Weeks

 TemperatureHumidityPressure
High79 °F (Aug 15, 1:20 pm)100% (Aug 7, 5:20 am)30.24 "Hg (Aug 7, 5:20 am)
Low48 °F (Aug 7, 5:20 am)41% (Aug 7, 2:20 pm)29.77 "Hg (Aug 12, 1:20 am)
Average63 °F79%30.00 "Hg
* Reported Aug 6 8:20 am — Aug 21 8:20 am, Demmin. Weather by CustomWeather, © 2017

Note: Actual official high and low records may vary slightly from our data, if they occured in-between our weather recording intervals... More about our weather records

Advertising

Demmin Weather History for the Previous 24 Hours

Scroll right to see more
 ConditionsComfort  
Time TempWeatherWind HumidityBarometerVisibility
8:20 am
Mon, Aug 21
57 °FPartly sunny.13 mph88%30.04 "HgN/A
7:20 am55 °FPartly sunny.10 mph94%30.04 "HgN/A
6:20 am55 °FPartly sunny.9 mph94%30.07 "HgN/A
6:13 am54 °FPartly sunny.10 mph94%30.07 "HgN/A
5:20 am54 °FPassing clouds.8 mph94%30.07 "HgN/A
4:50 am54 °FPassing clouds.8 mph94%30.07 "HgN/A
4:20 am54 °FPassing clouds.7 mph94%30.07 "HgN/A
3:20 am54 °FPassing clouds.9 mph100%30.07 "HgN/A
2:20 am55 °FPassing clouds.10 mph94%30.07 "HgN/A
1:20 am55 °FPassing clouds.9 mph94%30.07 "HgN/A
12:20 am55 °FPassing clouds.8 mph94%30.07 "HgN/A
11:20 pm
Sun, Aug 20
54 °FPassing clouds.7 mph94%30.07 "HgN/A
10:20 pm55 °FPassing clouds.8 mph88%30.07 "HgN/A
9:20 pm55 °FPassing clouds.9 mph88%30.07 "HgN/A
8:20 pm57 °FScattered clouds.9 mph88%30.07 "HgN/A
7:20 pm59 °FPartly sunny.9 mph77%30.07 "HgN/A
6:20 pm61 °FBroken clouds.8 mph83%30.07 "HgN/A
5:20 pm61 °FBroken clouds.9 mph83%30.07 "HgN/A
4:20 pm57 °FBroken clouds.8 mph88%30.07 "HgN/A
4:05 pm57 °FScattered showers. Partly sunny.13 mph88%30.07 "HgN/A
3:38 pm57 °FScattered showers. Broken clouds.15 mph88%30.07 "Hg4 mi
2:20 pm66 °FScattered clouds.8 mph56%30.04 "HgN/A
1:20 pm66 °FPartly sunny.12 mph56%30.04 "HgN/A
12:20 pm64 °FScattered clouds.13 mph64%30.04 "HgN/A
11:20 am63 °FScattered clouds.13 mph68%30.04 "HgN/A
10:20 am61 °FScattered clouds.10 mph72%30.04 "HgN/A
Weather by CustomWeather, © 2017

See weather overviewHow to use our weather pages